Location: Clarion
(42.7316°N, 93.7330°W)
Time: 01:58:52
(UTC+00:00)

ALOS - Pass Details

Date: 22 April 2026
Orbit: 660 x 663 km, 98.1° (Epoch: 20 May)

Event Time Altitude Azimuth Distance (km) Brightness Sun altitude
Rises 10:21:22 0° 357° (N) 3,003 5.9 -11.1°
Reaches altitude 10° 10:24:11 10° 339° (NNW) 2,085 4.9 -10.7°
Maximum altitude 10:27:14 18° 297° (WNW) 1,607 3.9 -10.2°
Enters shadow 10:29:48 12° 259° (WSW) 1,952 4.0 -9.8°
